This is the latest recevied weather packets stored in our database for station/object W4NDF-13. If no packets are shown the sender has not sent any weather packets the latest 10 day(s).
| Time | Temp. | Humidity | Pressure | Rain* | Wind** | Luminosity | Snow |
|---|---|---|---|---|---|---|---|
| 1777851980 | 23.33° C | 39% | 1018.9 hPa | 0 mm | - | 35 W/m² | - |
| 1777851678 | 23.33° C | 38% | 1018.9 hPa | 0 mm | - | 38 W/m² | - |
| 1777851375 | 23.89° C | 38% | 1019 hPa | 0 mm | - | 39 W/m² | - |
| 1777851070 | 23.89° C | 37% | 1019 hPa | 0 mm | - | 43 W/m² | - |
| 1777850767 | 23.89° C | 37% | 1018.9 hPa | 0 mm | - | 43 W/m² | - |
| 1777850464 | 23.89° C | 38% | 1018.8 hPa | 0 mm | - | 45 W/m² | - |
| 1777850163 | 24.44° C | 37% | 1019 hPa | 0 mm | - | 123 W/m² | - |
| 1777849859 | 24.44° C | 37% | 1019.1 hPa | 0 mm | - | 142 W/m² | - |
| 1777849555 | 24.44° C | 37% | 1019.5 hPa | 0 mm | - | 157 W/m² | - |
| 1777849253 | 25° C | 36% | 1019.6 hPa | 0 mm | - | 178 W/m² | - |
| 1777848950 | 25° C | 37% | 1019.6 hPa | 0 mm | - | 189 W/m² | - |
| 1777848645 | 24.44° C | 37% | 1019.5 hPa | 0 mm | - | 205 W/m² | - |
| 1777848343 | 24.44° C | 36% | 1019.6 hPa | 0 mm | - | 223 W/m² | - |
| 1777848040 | 25° C | 36% | 1019.5 hPa | 0 mm | - | 239 W/m² | - |
| 1777847738 | 25° C | 36% | 1019.5 hPa | 0 mm | - | 256 W/m² | - |
| 1777847433 | 25.56° C | 36% | 1019.6 hPa | 0 mm | - | 273 W/m² | - |
| 1777847132 | 25° C | 36% | 1019.5 hPa | 0 mm | - | 292 W/m² | - |
| 1777846830 | 25.56° C | 36% | 1019.5 hPa | 0 mm | - | 309 W/m² | - |
| 1777846527 | 25° C | 36% | 1019.6 hPa | 0 mm | - | 326 W/m² | - |
| 1777846225 | 24.44° C | 36% | 1019.7 hPa | 0 mm | - | 343 W/m² | - |
| 1777845920 | 25° C | 36% | 1019.6 hPa | 0 mm | - | 361 W/m² | - |
| 1777845617 | 25° C | 36% | 1019.8 hPa | 0 mm | - | 377 W/m² | - |
| 1777845315 | 25° C | 36% | 1020 hPa | 0 mm | - | 395 W/m² | - |
| 1777845012 | 25.56° C | 35% | 1019.9 hPa | 0 mm | - | 410 W/m² | - |
| 1777844710 | 25.56° C | 35% | 1020.1 hPa | 0 mm | - | 423 W/m² | - |
* Rain latest hour (hover to see other rain measurements)
** Current wind speed in m/s (hover to see current wind gust speed)